Regional Weather Roundup
Issued by NWS

Home | Current Version | Previous Version | Graphics & Text | Print | Product List | Glossary On
Versions: 1 2 3 4 5 6 7 8 9 10 11 12 13 14 15 16 17 18 19 20 21 22 23 24 25 26 27 28 29 30 31 32 33 34 35 36 37 38 39 40 41 42 43 44 45 46 47 48 49 50
000
ASUS43 KLOT 221903
RWRIL

ILLINOIS REGIONAL WEATHER ROUNDUP
NATIONAL WEATHER SERVICE CHICAGO/ROMEOVILLE IL
200 PM CDT SUN APR 22 2018

NOTE: "FAIR" INDICATES FEW OR NO CLOUDS BELOW 12,000 FEET WITH NO
SIGNIFICANT WEATHER AND/OR OBSTRUCTIONS TO VISIBILITY.

* THESE STATIONS ARE NOT UNDER NWS QUALITY CONTROL. THEY ALSO MAY NOT
  REPORT WEATHER SUCH AS PRECIPITATION OR FOG.

ILZ001-002-007-009-015-016-024-222000-
NORTHWEST ILLINOIS

CITY           SKY/WX    TMP DP  RH WIND       PRES   REMARKS
MOLINE         FAIR      68  19  15 E21G26    30.22F
STERLING*      FAIR      66  29  24 NE12G22   30.25F
$$

ILZ003-004-008-010-011-017-018-222000-
NORTH CENTRAL ILLINOIS

CITY           SKY/WX    TMP DP  RH WIND       PRES   REMARKS
ROCKFORD       PTSUNNY   62  24  23 E16       30.30F
DE KALB*       FAIR      62  29  28 E16G24    30.30S
$$

ILZ005-006-012>014-019>023-222000-
NORTHEAST ILLINOIS

CITY           SKY/WX    TMP DP  RH WIND       PRES   REMARKS
CHICAGO-OHARE  PTSUNNY   60  24  25 E15       30.31F
CHICAGO-MIDWAY PTSUNNY   60  25  26 NE16G25   30.31F
AURORA         FAIR      63  24  22 E16       30.28F
LANSING*       FAIR      61  35  36 NE12G18   30.28F
WAUKEGAN       NOT AVBL
DUPAGE AIRPORT FAIR      61  24  24 E15       30.29F
WHEELING       FAIR      58  27  30 E9        30.34F
NORTHERLY ISL    N/A     49  33  54 N10         N/A
$$

LMZ740>746-222000-
SOUTHERN LAKE MICHIGAN

STATION/POSITION SKY/WX   TEMP    WIND        PRES    VSBY  WAVE
                          AIR SEA DIR/SP/G                  HT/PER
                          (F)     (DEG/KT/KT) (MB)    (MI)  (FT/S)
HARRISON CRIB              42     360/ 12/ 12   N/A
BURNHAM HARBOR             51      20/ 11/ 11   N/A
CALUMET HARBOR             48      10/ 12/ 17 1025.9F
BURNS HARBOR               47      60/  8/ 10 1026.8S
MICHIGAN CITY              48      30/  9/ 11   N/A
$$

ILZ025>027-034>036-040-047-049-050-058-095>099-222000-
WEST-CENTRAL ILLINOIS

CITY           SKY/WX    TMP DP  RH WIND       PRES   REMARKS
QUINCY         CLOUDY    66  39  37 E16G24    30.14F
MACOMB*        CLOUDY    67  32  27 NE17G23   30.20S
$$

ILZ028>032-037-038-041>044-048-051>054-059>061-222000-
CENTRAL ILLINOIS

CITY           SKY/WX    TMP DP  RH WIND       PRES   REMARKS
BLOOMINGTON    CLOUDY    63  26  24 E22G29    30.22F
DECATUR        FAIR      67  31  26 E18G25    30.16F
PEORIA         PTSUNNY   65  24  21 E16G23    30.21S
LINCOLN*       PTSUNNY   66  30  25 E18G28    30.19F
SPRINGFIELD    CLOUDY    64  33  31 NE16      30.17F
TAYLORVILLE    NOT AVBL
$$

ILZ033-039-045-046-055>057-062-063-222000-
EAST-CENTRAL ILLINOIS

CITY           SKY/WX    TMP DP  RH WIND       PRES   REMARKS
CHAMPAIGN      FAIR      65  29  25 NE20      30.19F
DANVILLE*      FAIR      64  31  29 E14G20    30.19F
MATTOON        FAIR      68  36  30 E15       30.14F
$$

ILZ079-100>102-222000-
SOUTHWEST ILLINOIS

CITY           SKY/WX    TMP DP  RH WIND       PRES   REMARKS
ALTON          CLOUDY    57  39  51 NE10      30.11F
BELLEVILLE     CLOUDY    55  43  62 E6        30.10S
CAHOKIA*       CLOUDY    56  42  59 NE10      30.09F
$$

ILZ064>066-069>071-074>076-080>082-084>086-088>090-092>094-222000-
SOUTH-CENTRAL ILLINOIS

CITY           SKY/WX    TMP DP  RH WIND       PRES   REMARKS
CARBONDALE     LGT RAIN  55  49  80 E9        30.07F
CAIRO*         LGT RAIN  53  53  98 E9        30.02F
MARION         LGT RAIN  55  48  76 NE9       30.08F
MT. VERNON     FAIR      62  43  49 NE8       30.10F
SALEM*         CLOUDY    63  37  38 E7        30.11F
$$

ILZ067-068-072-073-078-083-087-091-222000-
SOUTHEAST ILLINOIS

CITY           SKY/WX    TMP DP  RH WIND       PRES   REMARKS
LAWRENCEVILLE  FAIR      72  39  30 E13       30.14F
FLORA*         FAIR      66  40  38 NE13      30.12F
CARMI*         PTSUNNY   69  49  48 E14G22    30.09F
$$

ABBREVIATIONS USED IN REMARKS
   TC - TEMPERATURE IN CELSIUS
  WCI - WIND CHILL INDEX
   HX - HEAT INDEX
  VSB - VISIBILITY
$$




USA.gov is the U.S. government's official web portal to all federal, state and local government web resources and services.